This is the latest recevied weather packets stored in our database for station/object K9RCP-20. If no packets are shown the sender has not sent any weather packets the latest 10 day(s).
| Time | Temp. | Humidity | Pressure | Rain* | Wind** | Luminosity | Snow |
|---|---|---|---|---|---|---|---|
| 1778365229 | 26.67° C | 33% | 1013.9 hPa | 0 mm | - | 608 W/m² | - |
| 1778364925 | 27.22° C | 33% | 1013.9 hPa | 0 mm | - | 590 W/m² | - |
| 1778364621 | 26.67° C | 32% | 1013.9 hPa | 0 mm | - | 585 W/m² | - |
| 1778364317 | 27.22° C | 34% | 1014.1 hPa | 0 mm | - | 597 W/m² | - |
| 1778364014 | 27.22° C | 34% | 1014.3 hPa | 0 mm | - | 617 W/m² | - |
| 1778363709 | 27.78° C | 35% | 1014.3 hPa | 0 mm | - | 629 W/m² | - |
| 1778363407 | 26.67° C | 35% | 1014.3 hPa | 0 mm | - | 629 W/m² | - |
| 1778363104 | 26.11° C | 36% | 1014.5 hPa | 0 mm | - | 627 W/m² | - |
| 1778362800 | 26.11° C | 33% | 1014.5 hPa | 0 mm | - | 661 W/m² | - |
| 1778362496 | 25.56° C | 35% | 1014.5 hPa | 0 mm | - | 671 W/m² | - |
| 1778362194 | 25° C | 38% | 1014.5 hPa | 0 mm | - | 673 W/m² | - |
| 1778361891 | 25° C | 39% | 1014.6 hPa | 0 mm | - | 667 W/m² | - |
| 1778361587 | 25° C | 39% | 1014.7 hPa | 0 mm | - | 698 W/m² | - |
| 1778361282 | 25° C | 39% | 1014.7 hPa | 0 mm | - | 749 W/m² | - |
| 1778360980 | 25° C | 39% | 1014.7 hPa | 0 mm | - | 714 W/m² | - |
| 1778360677 | 25.56° C | 38% | 1014.8 hPa | 0 mm | - | 615 W/m² | - |
| 1778360373 | 24.44° C | 38% | 1014.8 hPa | 0 mm | - | 772 W/m² | - |
| 1778360073 | 24.44° C | 39% | 1015 hPa | 0 mm | - | 611 W/m² | - |
| 1778359769 | 24.44° C | 39% | 1015 hPa | 0 mm | - | 664 W/m² | - |
| 1778359465 | 23.89° C | 40% | 1014.9 hPa | 0 mm | - | 539 W/m² | - |
| 1778359162 | 23.33° C | 42% | 1015.1 hPa | 0 mm | - | 556 W/m² | - |
| 1778358858 | 23.33° C | 42% | 1015 hPa | 0 mm | - | 515 W/m² | - |
| 1778358555 | 23.89° C | 43% | 1015 hPa | 0 mm | - | 306 W/m² | - |
| 1778358251 | 23.89° C | 42% | 1015.2 hPa | 0 mm | - | 561 W/m² | - |
| 1778357946 | 24.44° C | 43% | 1015.2 hPa | 0 mm | - | 751 W/m² | - |
* Rain latest hour (hover to see other rain measurements)
** Current wind speed in m/s (hover to see current wind gust speed)